Weather History for KCAG - August, 2013

Change the Weather History Date:

Saturday, August 3, 2013

  Actual Average Record
Temperature  
Mean Temperature 70 °F 68 °F  
Max Temperature 87 °F 88 °F 93 °F (2000)
Min Temperature 53 °F 48 °F 38 °F (2014)
Degree Days  
Heating Degree Days 0 1  
Month to date heating degree days 0 1  
Since 1 June heating degree days 88 201  
Since 1 July heating degree days 0 26  
Cooling Degree Days 5 3  
Month to date cooling degree days 10 9  
Year to date cooling degree days 242 98  
Since 1 June cooling degree days 242 98  
Growing Degree Days 20 (Base 50)    
Moisture  
Dew Point 47 °F    
Average Humidity 46    
Maximum Humidity 67    
Minimum Humidity 25    
Precipitation  
Precipitation T in 0.03 in 0.21 in (2010)
Month to date precipitation T 0.10  
Year to date precipitation 5.52 8.77  
Sea Level Pressure  
Sea Level Pressure 30.03 in    
Wind  
Wind Speed 8 mph (SE)    
Max Wind Speed 29 mph    
Max Gust Speed 35 mph    
Visibility 10 miles    
Events Rain , Thunderstorm    
T = Trace of Precipitation, MM = Missing Value Source: NWS Daily Summary

Daily Weather History Graph

Daily Weather History Graph

Search for Another Location

Airport or City:

Trip Planner

Search our weather history database for the weather conditions in past years. The results will help you decide how hot, cold, wet, or windy it might be!

Date:

Astronomy

Aug. 03, 2013 Rise Set
Actual Time 6:09 AM MDT 8:22 PM MDT
Civil Twilight 5:39 AM MDT 8:52 PM MDT
Nautical Twilight 5:01 AM MDT 9:29 PM MDT
Astronomical Twilight 4:20 AM MDT 10:10 PM MDT
Moon 3:21 AM MDT (8/3) 6:06 PM MDT (8/3)
Length of Visible Light 15h 13m
Length of Day
14h 12m
Waning Crescent, 9% of the Moon is Illuminated
Aug 3
Waning Crescent
Aug 6
New
Aug 14
First Quarter
Aug 20
Full
Aug 28
Last Quarter

Hourly Weather History & Observations

Time (MDT) Temp. Dew Point Humidity Pressure Visibility Wind Dir Wind Speed Gust Speed Precip Events Conditions
12:53 AM 64.0 °F 45.0 °F 50% 29.92 in 10.0 mi ENE 4.6 mph - N/A   Clear
1:53 AM 62.1 °F 44.1 °F 52% 29.93 in 10.0 mi Calm Calm - N/A   Clear
2:53 AM 60.1 °F 45.0 °F 57% 29.95 in 10.0 mi ESE 3.5 mph - N/A   Clear
3:53 AM 59.0 °F 45.0 °F 60% 29.96 in 10.0 mi SE 4.6 mph - N/A   Clear
4:53 AM 59.0 °F 45.0 °F 60% 29.96 in 10.0 mi Variable 3.5 mph - N/A   Clear
5:53 AM 55.0 °F 43.0 °F 64% 29.99 in 10.0 mi ESE 4.6 mph - N/A   Clear
6:53 AM 55.0 °F 45.0 °F 69% 30.03 in 10.0 mi Calm Calm - N/A   Clear
7:53 AM 62.1 °F 46.0 °F 56% 30.03 in 10.0 mi Calm Calm - N/A   Clear
8:53 AM 73.0 °F 44.1 °F 35% 30.01 in 10.0 mi ENE 9.2 mph - N/A   Clear
9:53 AM 78.1 °F 41.0 °F 27% 29.99 in 10.0 mi Variable 3.5 mph - N/A   Clear
10:53 AM 82.0 °F 44.1 °F 26% 29.97 in 10.0 mi ENE 8.1 mph - N/A   Clear
11:53 AM 82.9 °F 46.9 °F 28% 29.97 in 10.0 mi SW 5.8 mph - N/A   Clear
12:53 PM 86.0 °F 46.0 °F 25% 29.95 in 10.0 mi NNW 10.4 mph - N/A   Overcast
1:34 PM 82.4 °F 44.6 °F 26% 30.20 in 10.0 mi NW 11.5 mph 16.1 mph N/A Thunderstorm Scattered Clouds
1:53 PM 78.1 °F 48.9 °F 36% 29.99 in 10.0 mi South 13.8 mph 21.9 mph 0.00 in Rain , Thunderstorm Light Rain
2:07 PM 71.6 °F 53.6 °F 53% 30.21 in 10.0 mi SSE 20.7 mph 28.8 mph 0.00 in Rain Light Rain
2:17 PM 69.8 °F 55.4 °F 60% 30.20 in 10.0 mi SSE 20.7 mph - 0.00 in Rain , Thunderstorm Light Thunderstorms and Rain
2:53 PM 70.0 °F 52.0 °F 53% 30.00 in 10.0 mi SSE 20.7 mph 31.1 mph 0.00 in Thunderstorm Thunderstorm
3:03 PM 71.6 °F 50.0 °F 46% 30.20 in 1.8 mi SE 21.9 mph 29.9 mph N/A Thunderstorm Unknown
3:18 PM 71.6 °F 51.8 °F 50% 30.21 in 10.0 mi SSE 19.6 mph 28.8 mph N/A Thunderstorm Thunderstorm
3:43 PM 75.2 °F 51.8 °F 44% 30.21 in 10.0 mi SE 17.3 mph - N/A Thunderstorm Scattered Clouds
3:53 PM 79.0 °F 52.0 °F 39% 29.99 in 10.0 mi ESE 15.0 mph 23.0 mph N/A Thunderstorm Scattered Clouds
4:19 PM 73.4 °F 51.8 °F 47% 30.20 in 10.0 mi ESE 15.0 mph 25.3 mph N/A   Partly Cloudy
4:53 PM 73.0 °F 48.9 °F 42% 30.01 in 10.0 mi ESE 19.6 mph 28.8 mph 0.00 in   Partly Cloudy
5:12 PM 73.4 °F 48.2 °F 41% 30.20 in 10.0 mi SE 11.5 mph - N/A Thunderstorm Clear
5:53 PM 72.0 °F 48.9 °F 44% 30.02 in 10.0 mi SSE 23.0 mph 31.1 mph N/A Thunderstorm Clear
6:05 PM 73.4 °F 48.2 °F 41% 30.20 in 10.0 mi SSE 23.0 mph 31.1 mph N/A   Clear
6:53 PM 73.0 °F 48.9 °F 42% 30.01 in 10.0 mi South 18.4 mph - N/A   Scattered Clouds
7:53 PM 71.1 °F 48.9 °F 45% 29.99 in 10.0 mi ESE 6.9 mph - N/A   Clear
8:53 PM 68.0 °F 46.9 °F 47% 29.98 in 10.0 mi Variable 5.8 mph - N/A   Clear
9:53 PM 66.0 °F 46.9 °F 50% 29.99 in 10.0 mi Variable 3.5 mph - N/A   Clear
10:53 PM 64.9 °F 46.9 °F 52% 29.99 in 10.0 mi East 8.1 mph - N/A   Clear
11:53 PM 57.9 °F 46.9 °F 67% 30.02 in 10.0 mi ESE 4.6 mph - N/A   Clear